Location: Newark
(22.3000°N, 114.2000°E)
Time: 21:19:23
(UTC+00:00)

Hubble Space Telescope - Pass Details

Date: 01 November 2019
Orbit: 536 x 540 km, 28.5° (Epoch: 17 November)

Event Time Altitude Azimuth Distance (km) Brightness Sun altitude
Exits shadow 21:41:33 15° 300° (WNW) 1,507 2.5 -11.2°
Maximum altitude 21:44:30 33° 360° (N) 903 1.8 -10.5°
Drops below altitude 10° 21:48:15 10° 66° (ENE) 1,778 4.3 -9.7°
Sets 21:50:40 0° 76° (ENE) 2,668 5.6 -9.1°
